Location: Unspecified
(0.0000°N, 0.0000°E)
Time: 06:01:37
(UTC+00:00)

DX 1 - Pass Details

Date: 09 July 2020
Orbit: 619 x 630 km, 98.5° (Epoch: 13 August)

Event Time Altitude Azimuth Distance (km) Brightness Sun altitude
Rises 04:41:20 0° 142° (SE) 2,905 ? -19.4°
Reaches altitude 10° 04:44:02 10° 124° (SE) 1,993 ? -18.7°
Maximum altitude 04:47:10 20° 78° (ENE) 1,459 ? -18.0°
Drops below altitude 10° 04:50:16 10° 31° (NNE) 1,982 ? -17.3°
Sets 04:52:56 0° 14° (NNE) 2,882 ? -16.7°
